[[{"header":{"parameterUnit":"m.s-1","parameterCategory":1,"la1":30.2992,"la2":30.254,"lo1":-89.0895,"lo2":-89.0443,"dy":0.0025,"dx":0.0025,"nx":19,"ny":19,"refTime":"2026-04-20T03:00:00:Z","depth":0,"parameterNumber":2,"parameterNumberName":"U-component_of_WINDS"},"data":[0,0,0,-4.8484,-4.8492,-4.8834,-4.8835,-4.931,-4.9315,0,0,0,0,0,0,0,0,0,0,0,-4.8405,-4.8409,-4.8484,-4.8493,-4.8834,-4.8836,-4.9309,-4.9315,0,0,0,0,0,0,0,0,0,0,0,-4.8403,-4.8408,-4.8413,-4.8494,-4.8834,-4.8836,-4.9308,-4.9037,0,0,0,0,0,0,0,0,0,0,-4.8699,-4.8646,-4.8407,-4.8413,-4.8496,-4.8834,-4.8836,-4.9024,-4.9054,-4.9171,0,-4.928,0,-4.9305,-4.9349,-4.9351,0,0,0,-4.8477,-4.8621,-4.8694,-4.8413,-4.85,-4.8833,-4.8676,-4.904,-4.9075,-4.9212,-4.9287,-4.9303,-4.9313,-4.9352,-4.9355,-5.0083,-5.0087,0,0,-4.8458,-4.8478,-4.867,-4.8717,-4.8666,-4.8665,-4.8686,-4.9061,-4.9144,-4.9288,-4.9314,-4.9321,-4.9356,-4.9359,-5.0079,-5.0084,0,0,0,-4.8414,-4.8466,-4.8528,-4.8699,-4.8757,-4.8675,-4.87,-4.9127,-4.9145,-4.9319,-4.9327,-4.9359,-4.9365,-5.0074,-5.0081,-5.0308,0,0,0,-4.8402,-4.844,-4.8521,-4.8537,-4.8751,-4.8946,-4.8759,-4.912,-4.9161,-4.9324,-4.9359,-4.937,-5.007,-5.0078,-5.0291,-5.0412,0,0,0,-4.8375,-4.8437,-4.8494,-4.8537,-4.8685,-4.894,-4.8979,-4.9128,-4.9167,-4.9351,-4.9371,-5.0067,-5.0076,-5.0277,-5.0388,-5.0612,0,0,0,-4.8352,-4.8689,-4.8498,-4.8878,-4.8682,-4.9077,-4.8977,-4.9269,-4.9454,-4.9361,-5.007,-5.008,-5.0272,-5.0374,-5.0596,-5.0805,-5.0893,0,0,-4.8789,-4.8743,-4.8965,-4.8803,-4.9238,-4.9023,-4.9491,-4.964,-4.9639,-4.9935,-4.9953,-5.0297,-5.0387,-5.0608,-5.1375,-5.1445,0,0,0,-4.9111,-4.9271,-4.9381,-4.9558,-4.968,-4.9796,-4.9871,-4.9927,-5.0178,-4.9795,-5.0436,-5.0489,-5.0618,-5.0717,-5.0776,-5.0887,-5.0126,-5.0125,-5.0124,-4.976,-4.974,-5.0107,-5.013,-5.0303,-5.0378,-5.0517,-5.0605,-5.0533,-5.0686,-5.0774,-5.1242,-5.1358,-5.1403,-5.1518,-5.088,-5.0881,-5.0882,-5.0883,-5.0401,-5.0626,-5.0524,-5.0844,-5.0822,-5.109,-5.1177,-5.1118,-5.1366,-5.1173,-5.1286,-5.1079,-5.148,-5.1581,-5.09,-5.0897,-5.0895,-5.0893,-5.0892,-5.0826,-5.0931,-5.0993,-5.1248,-5.1447,-5.1457,-5.17,-5.167,-5.1644,-5.1755,-5.1847,-5.1844,-5.1838,-5.1801,-5.1803,-5.1804,-5.1806,-5.1807,-5.1808,-5.1244,-5.1306,-5.1515,-5.1674,-5.1785,-5.1927,-5.2006,-5.2115,-5.2227,-5.2187,-5.2187,-5.2103,-5.1522,-5.1378,-5.1833,-5.1828,-5.1825,-5.1823,-5.1821,-5.1905,-5.1751,-5.2073,-5.2185,-5.237,-5.2571,-5.253,-5.2754,-5.2838,-5.296,-5.2852,-5.2426,-5.2377,-5.2329,-5.221,-5.2853,-5.2853,-5.2853,-5.2853,-5.2265,-5.2237,-5.2561,-5.2741,-5.2914,-5.291,-5.3277,-5.3343,-5.3387,-5.3439,-5.3341,-5.3179,-5.3132,-5.3111,-5.3046,-5.2935,-5.3747,-5.3748,-5.3749,-5.2672,-5.2659,-5.2977,-5.3018,-5.3161,-5.3286,-5.3631,-5.3842,-5.386,-5.3785,-5.3479,-5.3442,-5.318,-5.3096,-5.3016,-5.2916,-5.2711,0,0]},{"header":{"parameterUnit":"m.s-1","parameterCategory":1,"la1":30.2992,"la2":30.254,"lo1":-89.0895,"lo2":-89.0443,"dy":0.0025,"dx":0.0025,"nx":19,"ny":19,"refTime":"2026-04-20T03:00:00:Z","depth":0,"parameterNumber":3,"parameterNumberName":"V-component_of_WINDS"},"data":[0,0,0,-0.5718,-0.5717,-0.5656,-0.5656,-0.5565,-0.5564,0,0,0,0,0,0,0,0,0,0,0,-0.573,-0.5729,-0.5718,-0.5717,-0.5656,-0.5656,-0.5565,-0.5564,0,0,0,0,0,0,0,0,0,0,0,-0.573,-0.5729,-0.5728,-0.5716,-0.5656,-0.5656,-0.5565,-0.5615,0,0,0,0,0,0,0,0,0,0,-0.5676,-0.5681,-0.5729,-0.5728,-0.5716,-0.5656,-0.5656,-0.5618,-0.5612,-0.5587,0,-0.5564,0,-0.5563,-0.5557,-0.5557,0,0,0,-0.5721,-0.5686,-0.5675,-0.5728,-0.5715,-0.5656,-0.5685,-0.5615,-0.5608,-0.5579,-0.5563,-0.556,-0.5561,-0.5556,-0.5556,-0.5398,-0.5397,0,0,-0.5724,-0.5715,-0.568,-0.5671,-0.5682,-0.5687,-0.5683,-0.5611,-0.5592,-0.5563,-0.5558,-0.556,-0.5556,-0.5555,-0.5399,-0.5397,0,0,0,-0.5731,-0.5717,-0.5709,-0.5674,-0.5665,-0.5685,-0.568,-0.5596,-0.5594,-0.5557,-0.5558,-0.5555,-0.5554,-0.54,-0.5398,-0.5341,0,0,0,-0.5733,-0.5721,-0.571,-0.5704,-0.5666,-0.563,-0.5666,-0.5599,-0.5591,-0.5559,-0.5555,-0.5553,-0.5401,-0.5399,-0.5345,-0.5315,0,0,0,-0.5736,-0.5722,-0.5711,-0.5703,-0.5677,-0.5631,-0.5625,-0.5597,-0.5591,-0.5556,-0.5552,-0.5401,-0.5399,-0.5349,-0.5321,-0.5269,0,0,0,-0.5736,-0.5663,-0.571,-0.5628,-0.5678,-0.5598,-0.5626,-0.5567,-0.553,-0.5554,-0.5401,-0.5398,-0.535,-0.5325,-0.5272,-0.5221,-0.52,0,0,-0.5638,-0.5651,-0.5603,-0.5644,-0.5553,-0.5608,-0.5508,-0.5483,-0.5488,-0.5427,-0.5423,-0.5344,-0.5321,-0.5269,-0.5089,-0.5072,0,0,0,-0.5569,-0.5534,-0.5512,-0.5477,-0.5457,-0.5435,-0.5427,-0.5417,-0.5366,-0.5455,-0.5313,-0.53,-0.5269,-0.5245,-0.5231,-0.5204,-0.5388,-0.5388,-0.5388,-0.5417,-0.5427,-0.5348,-0.5349,-0.5315,-0.5306,-0.5278,-0.5263,-0.5284,-0.5249,-0.5231,-0.512,-0.5091,-0.5081,-0.5053,-0.5207,-0.5207,-0.5207,-0.5206,-0.5272,-0.5223,-0.5252,-0.5185,-0.5195,-0.5138,-0.5125,-0.5141,-0.5088,-0.5136,-0.5109,-0.5158,-0.5062,-0.5037,-0.5202,-0.5203,-0.5203,-0.5204,-0.5204,-0.5171,-0.5149,-0.5139,-0.5088,-0.5046,-0.5051,-0.4998,-0.5009,-0.502,-0.4994,-0.4973,-0.4974,-0.4974,-0.4984,-0.4984,-0.4983,-0.4983,-0.4983,-0.4982,-0.507,-0.506,-0.5015,-0.4985,-0.4963,-0.4934,-0.4923,-0.49,-0.4878,-0.489,-0.489,-0.4911,-0.5052,-0.5085,-0.4976,-0.4977,-0.4978,-0.4979,-0.4979,-0.4915,-0.4952,-0.4881,-0.4859,-0.4823,-0.4779,-0.4795,-0.4747,-0.473,-0.4703,-0.473,-0.4833,-0.4846,-0.4858,-0.4885,-0.4731,-0.4731,-0.4731,-0.4731,-0.4828,-0.4836,-0.4765,-0.4727,-0.4692,-0.4698,-0.4615,-0.4604,-0.4599,-0.4588,-0.4612,-0.4651,-0.4662,-0.4668,-0.4684,-0.4709,-0.4514,-0.4513,-0.4513,-0.4732,-0.4737,-0.4664,-0.466,-0.4633,-0.4608,-0.4529,-0.4482,-0.4484,-0.4504,-0.4579,-0.4588,-0.465,-0.467,-0.4691,-0.4715,-0.4762,0,0]}]]